Total_Precipitation_Accumulation
0.00 0.00 0.00 0.00 0.00 0.00 0.00 0.00 0.01 0.01 0.00 0.00 0.00 0.00 0.00 0.00 0.00 0.00 0.00 0.00 0.00 0.01 0.01 0.01 0.02 0.02 0.02 0.01 0.01 0.01 0.01 0.01 0.01 0.01 0.01 0.03 0.05 0.06 0.06 0.06 0.12 0.15 0.05
0.00 0.00 0.00 0.00 0.00 0.00 0.00 0.00 0.01 0.01 0.00 0.00 0.00 0.00 0.00 0.00 0.00 0.00 0.00 0.00 0.00 0.01 0.01 0.01 0.01 0.02 0.01 0.01 0.00 0.00 0.00 0.00 0.00 0.00 0.01 0.01 0.04 0.07 0.04 0.01 0.10 0.16 0.05
0.00 0.00 0.00 0.00 0.00 0.00 0.00 0.00 0.00 0.00 0.00 0.00 0.00 0.00 0.00 0.00 0.00 0.00 0.00 0.00 0.00 0.00 0.01 0.01 0.01 0.01 0.01 0.00 0.00 0.00 0.00 0.00 0.00 0.01 0.01 0.03 0.03 0.05 0.06 0.01 0.01 0.03 0.02
0.00 0.00 0.00 0.00 0.00 0.00 0.00 0.00 0.00 0.00 0.00 0.00 0.00 0.00 0.00 0.00 0.00 0.00 0.00 0.00 0.00 0.01 0.01 0.01 0.01 0.01 0.01 0.00 0.00 0.00 0.00 0.01 0.01 0.01 0.04 0.23 0.19 0.04 0.05 0.02 0.01 0.01 0.01
0.00 0.00 0.00 0.00 0.00 0.00 0.00 0.00 0.00 0.00 0.00 0.00 0.00 0.00 0.00 0.00 0.01 0.01 0.01 0.01 0.01 0.02 0.02 0.02 0.01 0.01 0.01 0.01 0.00 0.00 0.00 0.00 0.01 0.01 0.03 0.20 0.23 0.11 0.04 0.02 0.01 0.00 0.00
0.00 0.00 0.00 0.00 0.00 0.00 0.00 0.00 0.00 0.00 0.00 0.00 0.00 0.00 0.00 0.01 0.01 0.01 0.01 0.01 0.01 0.02 0.02 0.02 0.01 0.01 0.01 0.01 0.00 0.00 0.00 0.00 0.01 0.01 0.01 0.04 0.09 0.12 0.07 0.03 0.01 0.00 0.00
0.00 0.00 0.00 0.01 0.00 0.00 0.00 0.00 0.00 0.00 0.00 0.00 0.00 0.00 0.00 0.00 0.01 0.01 0.01 0.01 0.01 0.01 0.01 0.01 0.01 0.02 0.02 0.02 0.02 0.02 0.01 0.00 0.00 0.02 0.02 0.04 0.05 0.08 0.11 0.07 0.03 0.01 0.01
0.00 0.00 0.00 0.01 0.01 0.01 0.01 0.00 0.00 0.00 0.00 0.00 0.00 0.00 0.00 0.00 0.00 0.00 0.00 0.00 0.00 0.00 0.00 0.00 0.00 0.00 0.01 0.02 0.03 0.04 0.04 0.02 0.01 0.02 0.02 0.06 0.16 0.13 0.22 0.19 0.09 0.04 0.04
0.00 0.00 0.01 0.01 0.02 0.02 0.01 0.01 0.01 0.01 0.01 0.00 0.00 0.00 0.00 0.00 0.00 0.00 0.00 0.00 0.00 0.00 0.00 0.00 0.00 0.00 0.01 0.02 0.03 0.03 0.03 0.02 0.01 0.02 0.01 0.03 0.12 0.19 0.41 0.41 0.27 0.17 0.13
0.00 0.01 0.01 0.02 0.03 0.04 0.04 0.03 0.02 0.02 0.01 0.01 0.01 0.00 0.00 0.00 0.00 0.00 0.00 0.01 0.02 0.01 0.01 0.01 0.01 0.01 0.02 0.04 0.06 0.08 0.10 0.05 0.01 0.02 0.01 0.01 0.08 0.24 0.48 0.55 0.48 0.41 0.32
0.01 0.01 0.02 0.03 0.05 0.07 0.07 0.06 0.06 0.07 0.06 0.04 0.03 0.02 0.01 0.01 0.02 0.05 0.07 0.08 0.08 0.09 0.09 0.09 0.08 0.08 0.09 0.06 0.13 0.20 0.15 0.03 0.01 0.02 0.01 0.03 0.10 0.29 0.44 0.55 0.53 0.48 0.46
0.01 0.02 0.03 0.04 0.06 0.07 0.09 0.10 0.12 0.12 0.13 0.11 0.09 0.11 0.12 0.11 0.08 0.08 0.17 0.19 0.27 0.36 0.34 0.34 0.47 0.40 0.22 0.11 0.22 0.34 0.19 0.09 0.05 0.04 0.04 0.07 0.14 0.32 0.43 0.44 0.46 0.48 0.47
0.01 0.02 0.02 0.03 0.04 0.07 0.11 0.11 0.12 0.13 0.14 0.15 0.20 0.25 0.32 0.30 0.25 0.24 0.37 0.45 0.47 0.48 0.37 0.53 0.75 0.46 0.33 0.31 0.30 0.31 0.32 0.27 0.17 0.17 0.16 0.17 0.25 0.45 0.53 0.41 0.43 0.47 0.42
0.07 0.12 0.13 0.09 0.07 0.07 0.09 0.09 0.10 0.11 0.13 0.16 0.24 0.38 0.51 0.50 0.42 0.48 0.56 0.44 0.38 0.38 0.49 0.54 0.60 0.45 0.37 0.36 0.41 0.47 0.55 0.46 0.33 0.31 0.35 0.40 0.44 0.54 0.59 0.51 0.48 0.46 0.42
0.22 0.36 0.39 0.33 0.26 0.19 0.13 0.11 0.11 0.14 0.16 0.23 0.35 0.57 0.72 0.73 0.73 0.78 0.66 0.52 0.38 0.51 0.67 0.67 0.58 0.54 0.56 0.65 0.72 0.77 0.76 0.52 0.35 0.28 0.27 0.42 0.50 0.51 0.56 0.59 0.60 0.57 0.58
0.44 0.62 0.70 0.76 0.71 0.58 0.44 0.37 0.39 0.42 0.45 0.54 0.60 0.70 0.85 0.88 0.88 0.83 0.74 0.62 0.57 0.67 0.79 0.70 0.60 0.62 0.62 0.61 0.49 0.44 0.45 0.43 0.38 0.26 0.18 0.24 0.35 0.36 0.41 0.50 0.57 0.59 0.66
0.87 1.14 1.31 1.34 1.32 1.28 1.15 0.94 0.80 0.73 0.73 0.76 0.80 0.75 0.77 0.81 0.78 0.81 0.73 0.64 0.67 0.68 0.67 0.61 0.56 0.54 0.47 0.40 0.29 0.23 0.21 0.20 0.18 0.15 0.10 0.09 0.15 0.24 0.28 0.35 0.43 0.46 0.52
1.58 2.01 2.26 2.25 2.11 1.78 1.49 1.31 1.17 1.08 1.03 0.92 0.84 0.71 0.57 0.58 0.60 0.61 0.53 0.49 0.47 0.48 0.45 0.40 0.37 0.37 0.37 0.37 0.32 0.25 0.22 0.19 0.14 0.10 0.08 0.06 0.07 0.11 0.26 0.36 0.40 0.39 0.44
2.76 3.29 3.25 2.84 2.53 2.01 1.55 1.33 1.30 1.33 1.25 1.09 0.96 0.80 0.62 0.52 0.50 0.51 0.44 0.37 0.31 0.29 0.27 0.22 0.21 0.22 0.22 0.24 0.23 0.22 0.20 0.19 0.14 0.10 0.08 0.07 0.07 0.07 0.10 0.18 0.29 0.32 0.38
3.32 4.01 3.96 3.32 2.63 2.11 1.77 1.54 1.38 1.32 1.20 1.04 0.93 0.79 0.63 0.50 0.45 0.40 0.33 0.26 0.19 0.16 0.13 0.13 0.14 0.15 0.13 0.13 0.10 0.09 0.10 0.08 0.07 0.09 0.07 0.04 0.04 0.05 0.06 0.07 0.14 0.20 0.29
2.64 3.11 3.13 2.51 2.02 1.71 1.43 1.07 0.90 0.87 0.78 0.69 0.66 0.60 0.53 0.47 0.41 0.34 0.25 0.19 0.14 0.10 0.06 0.05 0.05 0.06 0.06 0.07 0.07 0.05 0.04 0.03 0.04 0.06 0.06 0.03 0.04 0.11 0.15 0.12 0.13 0.23 0.29
1.66 1.75 1.38 1.10 0.92 0.78 0.68 0.51 0.41 0.37 0.34 0.31 0.30 0.30 0.28 0.31 0.32 0.29 0.23 0.17 0.13 0.09 0.05 0.03 0.03 0.02 0.02 0.02 0.02 0.02 0.01 0.01 0.01 0.03 0.06 0.07 0.08 0.15 0.19 0.18 0.20 0.25 0.24
1.04 0.90 0.61 0.47 0.47 0.41 0.33 0.25 0.22 0.20 0.20 0.20 0.20 0.19 0.19 0.19 0.20 0.20 0.19 0.17 0.12 0.08 0.06 0.04 0.02 0.02 0.01 0.01 0.00 0.01 0.01 0.00 0.00 0.02 0.06 0.09 0.11 0.14 0.14 0.17 0.18 0.18 0.23
0.47 0.48 0.51 0.52 0.41 0.30 0.26 0.19 0.14 0.13 0.12 0.13 0.14 0.15 0.17 0.15 0.14 0.13 0.14 0.14 0.12 0.10 0.08 0.05 0.03 0.03 0.02 0.01 0.01 0.01 0.02 0.03 0.04 0.03 0.05 0.11 0.14 0.13 0.12 0.12 0.11 0.14 0.19
0.28 0.47 0.68 0.66 0.45 0.31 0.27 0.23 0.21 0.19 0.18 0.17 0.17 0.18 0.19 0.20 0.19 0.17 0.15 0.15 0.12 0.12 0.11 0.08 0.06 0.05 0.04 0.03 0.03 0.03 0.03 0.04 0.08 0.10 0.05 0.07 0.13 0.08 0.06 0.05 0.04 0.07 0.11
0.26 0.33 0.42 0.49 0.56 0.51 0.46 0.37 0.33 0.32 0.30 0.27 0.26 0.24 0.25 0.26 0.28 0.27 0.26 0.28 0.29 0.22 0.14 0.10 0.08 0.07 0.06 0.06 0.06 0.06 0.05 0.04 0.05 0.10 0.10 0.09 0.08 0.03 0.04 0.07 0.08 0.11 0.15